Location: Cedar Brake
(32.2526°N, 97.8459°W)
Time: 08:07:01
(UTC+00:00)

Cosmos 1733 Rocket - Pass Details

Date: 22 April 2026
Orbit: 597 x 619 km, 82.5° (Epoch: 15 May)

Event Time Altitude Azimuth Distance (km) Brightness Sun altitude
Rises 01:39:32 0° 165° (SSE) 2,853 6.1 -7.7°
Reaches altitude 10° 01:41:52 10° 156° (SSE) 1,957 5.2 -8.2°
Maximum altitude 01:45:48 35° 91° (E) 1,002 3.7 -9.0°
Drops below altitude 10° 01:49:47 10° 26° (NNE) 1,980 5.6 -9.8°
Sets 01:52:09 0° 18° (NNE) 2,892 6.6 -10.2°
